Clinton, IA

1:55 AM CDT on May 23, 2018 (GMT -0500)
Clinton Municipal

Weather History for KCWI - November, 2011

Change the Weather History Date:

Sunday, November 20, 2011

  Actual Average Record
Temperature  
Mean Temperature 36 °F -  
Max Temperature 39 °F 45 °F 69 °F (2003)
Min Temperature 30 °F 29 °F 3 °F (2014)
Degree Days  
Heating Degree Days 30    
Moisture  
Dew Point 29 °F    
Average Humidity 73    
Maximum Humidity 86    
Minimum Humidity 65    
Precipitation  
Precipitation 0.00 in - - ()
Sea Level Pressure  
Sea Level Pressure 30.26 in    
Wind  
Wind Speed 11 mph (NNE)    
Max Wind Speed 20 mph    
Max Gust Speed 26 mph    
Visibility 10 miles    
Events      
Averages and records for this station are not official NWS values.
T = Trace of Precipitation, MM = Missing Value Source: NWS Daily Summary

Daily Weather History Graph

Daily Weather History Graph

Search for Another Location

Airport or City:

Astronomy

Nov. 20, 2011 Rise Set
Actual Time 6:56 AM CST 4:36 PM CST
Civil Twilight 6:26 AM CST 5:07 PM CST
Nautical Twilight 5:52 AM CST 5:41 PM CST
Astronomical Twilight 5:19 AM CST 6:14 PM CST
Moon 1:20 AM CST (11/20) 1:29 PM CST (11/20)
Length of Visible Light 10h 40m
Length of Day
9h 40m
Waning Crescent, 27% of the Moon is Illuminated
Nov 20
Waning Crescent
Nov 25
New
Dec 2
First Quarter
Dec 10
Full
Dec 17
Last Quarter

Hourly Weather History & Observations

Time (CST) Temp. Windchill Dew Point Humidity Pressure Visibility Wind Dir Wind Speed Gust Speed Precip Events Conditions
12:15 AM 37.4 °F 27.2 °F 30.2 °F 75% 30.03 in 10.0 mi WNW 19.6 mph 26.5 mph N/A   Overcast
12:35 AM 37.4 °F 28.9 °F 30.2 °F 75% 30.05 in 10.0 mi WNW 13.8 mph 20.7 mph N/A   Overcast
12:55 AM 37.4 °F 28.5 °F 30.2 °F 75% 30.06 in 10.0 mi WNW 15.0 mph - N/A   Overcast
1:15 AM 37.4 °F 28.9 °F 30.2 °F 75% 30.07 in 10.0 mi WNW 13.8 mph 21.9 mph N/A   Overcast
1:35 AM 37.4 °F 28.9 °F 30.2 °F 75% 30.08 in 10.0 mi NW 13.8 mph - N/A   Overcast
1:55 AM 37.4 °F 28.5 °F 30.2 °F 75% 30.10 in 10.0 mi NW 15.0 mph 19.6 mph N/A   Overcast
2:15 AM 37.4 °F 30.8 °F 30.2 °F 75% 30.11 in 10.0 mi NW 9.2 mph 17.3 mph N/A   Overcast
2:35 AM 37.4 °F 31.4 °F 30.2 °F 75% 30.12 in 10.0 mi NW 8.1 mph - N/A   Overcast
2:55 AM 35.6 °F 27.5 °F 30.2 °F 81% 30.14 in 10.0 mi NW 11.5 mph - N/A   Overcast
3:15 AM 35.6 °F 28.6 °F 30.2 °F 81% 30.15 in 10.0 mi NW 9.2 mph - N/A   Overcast
3:35 AM 35.6 °F 28.6 °F 30.2 °F 81% 30.15 in 10.0 mi NW 9.2 mph - N/A   Overcast
3:55 AM 35.6 °F 28.6 °F 30.2 °F 81% 30.15 in 10.0 mi NNW 9.2 mph - N/A   Overcast
4:15 AM 35.6 °F 27.5 °F 30.2 °F 81% 30.17 in 10.0 mi North 11.5 mph - N/A   Overcast
4:35 AM 35.6 °F 28.0 °F 30.2 °F 81% 30.17 in 10.0 mi NNW 10.4 mph - N/A   Overcast
4:55 AM 35.6 °F 29.2 °F 30.2 °F 81% 30.18 in 10.0 mi North 8.1 mph - N/A   Overcast
5:15 AM 35.6 °F 28.6 °F 30.2 °F 81% 30.19 in 10.0 mi North 9.2 mph - N/A   Overcast
6:55 AM 35.6 °F 28.0 °F 28.4 °F 75% 30.22 in 10.0 mi North 10.4 mph - N/A   Overcast
7:15 AM 35.6 °F 29.2 °F 28.4 °F 75% 30.22 in 10.0 mi North 8.1 mph - N/A   Overcast
7:35 AM 35.6 °F 29.2 °F 28.4 °F 75% 30.24 in 10.0 mi North 8.1 mph - N/A   Overcast
7:55 AM 35.6 °F 29.9 °F 28.4 °F 75% 30.25 in 10.0 mi North 6.9 mph - N/A   Overcast
8:15 AM 37.4 °F 31.4 °F 28.4 °F 70% 30.26 in 10.0 mi North 8.1 mph - N/A   Overcast
8:35 AM 37.4 °F 31.4 °F 28.4 °F 70% 30.28 in 10.0 mi NNE 8.1 mph - N/A   Overcast
8:55 AM 37.4 °F 30.8 °F 28.4 °F 70% 30.29 in 10.0 mi NNE 9.2 mph - N/A   Overcast
9:15 AM 37.4 °F 31.4 °F 28.4 °F 70% 30.28 in 10.0 mi North 8.1 mph - N/A   Overcast
9:35 AM 37.4 °F 30.8 °F 28.4 °F 70% 30.30 in 10.0 mi NNW 9.2 mph - N/A   Overcast
9:55 AM 37.4 °F 32.1 °F 28.4 °F 70% 30.31 in 10.0 mi NNW 6.9 mph - N/A   Overcast
10:15 AM 37.4 °F 31.4 °F 28.4 °F 70% 30.30 in 10.0 mi North 8.1 mph - N/A   Overcast
10:35 AM 37.4 °F 31.4 °F 28.4 °F 70% 30.31 in 10.0 mi North 8.1 mph - N/A   Overcast
10:55 AM 39.2 °F 34.2 °F 28.4 °F 65% 30.31 in 10.0 mi North 6.9 mph - N/A   Overcast
11:15 AM 39.2 °F 35.0 °F 28.4 °F 65% 30.31 in 10.0 mi NNE 5.8 mph - N/A   Overcast
11:35 AM 37.4 °F 31.4 °F 28.4 °F 70% 30.30 in 10.0 mi North 8.1 mph - N/A   Overcast
12:15 PM 39.2 °F 35.9 °F 28.4 °F 65% 30.30 in 10.0 mi North 4.6 mph - N/A   Overcast
12:55 PM 39.2 °F 33.0 °F 28.4 °F 65% 30.28 in 10.0 mi NE 9.2 mph - N/A   Overcast
1:15 PM 39.2 °F 33.6 °F 28.4 °F 65% 30.30 in 10.0 mi ENE 8.1 mph - N/A   Overcast
1:35 PM 39.2 °F 35.0 °F 28.4 °F 65% 30.30 in 10.0 mi NE 5.8 mph - N/A   Overcast
1:55 PM 39.2 °F 34.2 °F 28.4 °F 65% 30.30 in 10.0 mi ENE 6.9 mph - N/A   Overcast
2:15 PM 39.2 °F 35.0 °F 28.4 °F 65% 30.30 in 10.0 mi NE 5.8 mph - N/A   Overcast
2:35 PM 39.2 °F 35.0 °F 28.4 °F 65% 30.31 in 10.0 mi NE 5.8 mph - N/A   Overcast
2:55 PM 39.2 °F 34.2 °F 30.2 °F 70% 30.30 in 10.0 mi NE 6.9 mph - N/A   Overcast
3:15 PM 39.2 °F 34.2 °F 28.4 °F 65% 30.31 in 10.0 mi NE 6.9 mph - N/A   Overcast
3:35 PM 39.2 °F 35.0 °F 30.2 °F 70% 30.31 in 10.0 mi NE 5.8 mph - N/A   Overcast
3:55 PM 39.2 °F 33.6 °F 28.4 °F 65% 30.32 in 10.0 mi NE 8.1 mph - N/A   Overcast
4:15 PM 39.2 °F 33.0 °F 30.2 °F 70% 30.31 in 10.0 mi NE 9.2 mph - N/A   Overcast
4:35 PM 39.2 °F 33.0 °F 30.2 °F 70% 30.31 in 10.0 mi NE 9.2 mph - N/A   Overcast
4:55 PM 37.4 °F 30.8 °F 28.4 °F 70% 30.30 in 10.0 mi NNE 9.2 mph - N/A   Scattered Clouds
5:15 PM 37.4 °F 31.4 °F 28.4 °F 70% 30.30 in 10.0 mi NNE 8.1 mph - N/A   Mostly Cloudy
5:35 PM 37.4 °F 32.1 °F 28.4 °F 70% 30.30 in 10.0 mi NE 6.9 mph - N/A   Overcast
5:55 PM 35.6 °F 28.6 °F 28.4 °F 75% 30.30 in 10.0 mi NE 9.2 mph - N/A   Overcast
6:15 PM 35.6 °F 30.7 °F 30.2 °F 81% 30.30 in 10.0 mi ENE 5.8 mph - N/A   Overcast
6:35 PM 35.6 °F 29.9 °F 30.2 °F 81% 30.31 in 10.0 mi ENE 6.9 mph - N/A   Overcast
6:55 PM 35.6 °F 30.7 °F 30.2 °F 81% 30.31 in 10.0 mi ENE 5.8 mph - N/A   Overcast
7:35 PM 37.4 °F 31.4 °F 30.2 °F 75% 30.33 in 10.0 mi ENE 8.1 mph - N/A   Mostly Cloudy
7:55 PM 37.4 °F 31.4 °F 28.4 °F 70% 30.33 in 10.0 mi East 8.1 mph - N/A   Scattered Clouds
8:15 PM 37.4 °F 31.4 °F 28.4 °F 70% 30.33 in 10.0 mi East 8.1 mph - N/A   Mostly Cloudy
8:55 PM 35.6 °F 29.2 °F 28.4 °F 75% 30.33 in 10.0 mi East 8.1 mph - N/A   Mostly Cloudy
9:15 PM 35.6 °F 29.2 °F 28.4 °F 75% 30.33 in 10.0 mi ENE 8.1 mph - N/A   Partly Cloudy
9:35 PM 35.6 °F 27.5 °F 28.4 °F 75% 30.33 in 10.0 mi ENE 11.5 mph - N/A   Mostly Cloudy
9:55 PM 35.6 °F 26.2 °F 28.4 °F 75% 30.32 in 10.0 mi ENE 15.0 mph - N/A   Overcast
10:15 PM 35.6 °F 27.5 °F 26.6 °F 70% 30.32 in 10.0 mi ENE 11.5 mph - N/A   Scattered Clouds
10:35 PM 33.8 °F 25.8 °F 26.6 °F 75% 30.32 in 10.0 mi ENE 10.4 mph - N/A   Clear
10:55 PM 33.8 °F 26.4 °F 26.6 °F 75% 30.32 in 10.0 mi ENE 9.2 mph - N/A   Clear
11:15 PM 33.8 °F 27.7 °F 26.6 °F 75% 30.33 in 10.0 mi ENE 6.9 mph - N/A   Clear
11:35 PM 32.0 °F 25.6 °F 26.6 °F 80% 30.32 in 10.0 mi ENE 6.9 mph - N/A   Clear
11:55 PM 30.2 °F 22.6 °F 26.6 °F 86% 30.32 in 10.0 mi NE 8.1 mph - N/A   Clear